Satellite: MAST
Catalog number: 31126
Epoch time:      08023.22253305
Element set:     238
Inclination:      098.0592 deg
RA of node:       093.3698 deg
Eccentricity:    0.0095812
Arg of perigee:   064.5337 deg
Mean anomaly:     296.5776 deg
Mean motion:   14.53394447 rev/day
Decay rate:        5.8e-07 rev/day^2
Epoch rev:            4081
Checksum:              307

Satellite: CAPE1
Catalog number: 31130
Epoch time:      08024.68018317
Element set:     219
Inclination:      098.0609 deg
RA of node:       094.1150 deg
Eccentricity:    0.0103755
Arg of perigee:   062.0165 deg
Mean anomaly:     299.1494 deg
Mean motion:   14.51924186 rev/day
Decay rate:        1.1e-07 rev/day^2
Epoch rev:            4075
Checksum:              269

/EX




_______________________________________________
Via the Keps mailing list courtesy of AMSAT-NA
http://amsat.org/mailman/listinfo/keps

--- ViaMAIL!/WC v1.60d
 * Origin: Chowdanet (401-724-4410) telnet://chowdanet.com  (1:323/120)